| time (UTC) | temp F | wind direction | speed MPH | gust MPH | rain 1hr in | rain 24hr in | rain mn in | humidity % | barometer mb |
| 20260506181559 | 59 | 0 | 1.0 | 4.0 | 0.05 | 0.05 | 0.05 | 94 | 1008.2 |
| 20260506180106 | 59 | 188 | 0.0 | 4.0 | 0.04 | 0.04 | 0.04 | 93 | 1008.1 |
| 20260506174556 | 60 | 189 | 0.0 | 3.0 | 0.02 | 0.02 | 0.02 | 92 | 1008.1 |
| 20260506173116 | 60 | 0 | 0.0 | 4.0 | 0.01 | 0.01 | 0.01 | 91 | 1008.4 |
| 20260506171602 | 61 | 169 | 0.0 | 3.0 | 0.00 | 0.00 | 0.00 | 87 | 1008.7 |
| 20260506170059 | 63 | 174 | 1.0 | 4.0 | 0.00 | 0.00 | 0.00 | 84 | 1009.3 |
| 20260506164556 | 64 | 0 | 0.0 | 5.0 | 0.00 | 0.00 | 0.00 | 81 | 1009.4 |
| 20260506163106 | 65 | 175 | 1.0 | 5.0 | 0.00 | 0.00 | 0.00 | 79 | 1009.2 |
| 20260506161558 | 66 | 175 | 1.0 | 4.0 | 0.00 | 0.00 | 0.00 | 78 | 1009.2 |
| 20260506160106 | 66 | 207 | 1.0 | 5.0 | 0.00 | 0.00 | 0.00 | 76 | 1009.3 |
| 20260506154557 | 66 | 152 | 1.0 | 5.0 | 0.00 | 0.00 | 0.00 | 76 | 1009.5 |
| 20260506153053 | 67 | 185 | 1.0 | 5.0 | 0.00 | 0.00 | 0.00 | 75 | 1009.5 |
| 20260506151556 | 67 | 355 | 1.0 | 3.0 | 0.00 | 0.00 | 0.00 | 74 | 1009.4 |
| 20260506144555 | 66 | 265 | 0.0 | 4.0 | 0.00 | 0.00 | 0.00 | 76 | 1009.4 |
| 20260506143055 | 67 | 194 | 1.0 | 4.0 | 0.00 | 0.00 | 0.00 | 75 | 1009.7 |
| 20260506141558 | 67 | 265 | 1.0 | 3.0 | 0.00 | 0.00 | 0.00 | 75 | 1009.7 |
| 20260506140059 | 66 | 178 | 1.0 | 4.0 | 0.00 | 0.00 | 0.00 | 79 | 1009.7 |
| 20260506134617 | 65 | 0 | 1.0 | 7.0 | 0.00 | 0.00 | 0.00 | 79 | 1009.9 |
| 20260506133056 | 65 | 241 | 0.0 | 4.0 | 0.00 | 0.00 | 0.00 | 80 | 1009.6 |
| 20260506131609 | 63 | 240 | 0.0 | 5.0 | 0.00 | 0.00 | 0.00 | 83 | 1009.8 |
| 20260506130056 | 62 | 0 | 0.0 | 2.0 | 0.00 | 0.00 | 0.00 | 83 | 1009.7 |
| 20260506124554 | 61 | 186 | 1.0 | 5.0 | 0.00 | 0.00 | 0.00 | 85 | 1010.0 |
| 20260506123056 | 61 | 0 | 0.0 | 4.0 | 0.00 | 0.00 | 0.00 | 85 | 1010.3 |
| 20260506121606 | 60 | 0 | 0.0 | 7.0 | 0.00 | 0.00 | 0.00 | 85 | 1010.5 |
| 20260506120054 | 60 | 176 | 0.0 | 2.0 | 0.00 | 0.00 | 0.00 | 86 | 1010.4 |
| 20260506114557 | 59 | 0 | 0.0 | 2.0 | 0.00 | 0.00 | 0.00 | 87 | 1010.3 |
| 20260506113058 | 59 | 0 | 0.0 | 4.0 | 0.00 | 0.00 | 0.00 | 88 | 1010.6 |
| 20260506111611 | 58 | 286 | 0.0 | 2.0 | 0.00 | 0.00 | 0.00 | 90 | 1010.4 |
| 20260506110055 | 57 | 286 | 0.0 | 3.0 | 0.00 | 0.00 | 0.00 | 90 | 1010.8 |
| 20260506104554 | 57 | 288 | 0.0 | 3.0 | 0.00 | 0.00 | 0.00 | 90 | 1010.5 |
| 20260506103104 | 56 | 292 | 1.0 | 3.0 | 0.00 | 0.00 | 0.00 | 91 | 1010.7 |
| 20260506101556 | 56 | 182 | 1.0 | 3.0 | 0.00 | 0.00 | 0.00 | 91 | 1010.3 |
| 20260506100054 | 56 | 0 | 1.0 | 4.0 | 0.00 | 0.00 | 0.00 | 91 | 1010.3 |
| 20260506094557 | 56 | 256 | 1.0 | 3.0 | 0.00 | 0.00 | 0.00 | 91 | 1010.3 |
| 20260506093059 | 56 | 63 | 0.0 | 1.0 | 0.00 | 0.00 | 0.00 | 90 | 1010.3 |
| 20260506091554 | 56 | 0 | 0.0 | 3.0 | 0.00 | 0.00 | 0.00 | 90 | 1010.4 |
| 20260506090056 | 56 | 0 | 0.0 | 2.0 | 0.00 | 0.00 | 0.00 | 90 | 1010.5 |
| 20260506084601 | 57 | 32 | 0.0 | 1.0 | 0.00 | 0.00 | 0.00 | 89 | 1010.4 |
| 20260506083115 | 57 | 17 | 0.0 | 4.0 | 0.00 | 0.00 | 0.00 | 88 | 1010.5 |
| 20260506081555 | 57 | 0 | 1.0 | 4.0 | 0.00 | 0.00 | 0.00 | 88 | 1010.5 |
| 20260506073110 | 57 | 0 | 1.0 | 6.0 | 0.00 | 0.00 | 0.00 | 86 | 1010.4 |
| 20260506071601 | 58 | 290 | 0.0 | 4.0 | 0.00 | 0.00 | 0.00 | 86 | 1010.5 |
| 20260506070126 | 58 | 0 | 0.0 | 4.0 | 0.00 | 0.00 | 0.00 | 85 | 1010.4 |
| 20260506061559 | 59 | 0 | 1.0 | 4.0 | 0.00 | 0.00 | 0.00 | 83 | 1010.3 |
| 20260506050108 | 61 | 0 | 0.0 | 3.0 | 0.00 | 0.00 | 0.00 | 78 | 1010.7 |
| 20260506044558 | 61 | 336 | 0.0 | 4.0 | 0.00 | 0.00 | 0.00 | 77 | 1010.7 |
| 20260506043058 | 62 | 0 | 0.0 | 4.0 | 0.00 | 0.00 | 0.00 | 76 | 1010.8 |
| 20260506041603 | 62 | 0 | 0.0 | 2.0 | 0.00 | 0.00 | 0.00 | 74 | 1010.8 |
| 20260506040059 | 62 | 217 | 0.0 | 4.0 | 0.00 | 0.00 | 0.00 | 74 | 1010.9 |
| 20260506034559 | 62 | 178 | 1.0 | 3.0 | 0.00 | 0.00 | 0.00 | 74 | 1010.7 |
| 20260506033053 | 62 | 168 | 1.0 | 5.0 | 0.00 | 0.00 | 0.00 | 73 | 1010.7 |
| 20260506031557 | 63 | 143 | 1.0 | 3.0 | 0.00 | 0.00 | 0.00 | 72 | 1010.7 |
| 20260506030058 | 63 | 196 | 1.0 | 3.0 | 0.00 | 0.00 | 0.00 | 72 | 1010.6 |
| 20260506024605 | 63 | 196 | 1.0 | 3.0 | 0.00 | 0.00 | 0.00 | 72 | 1010.6 |
| 20260506023055 | 63 | 152 | 1.0 | 6.0 | 0.00 | 0.00 | 0.00 | 71 | 1010.4 |
| 20260506021556 | 63 | 219 | 1.0 | 4.0 | 0.00 | 0.00 | 0.00 | 71 | 1010.4 |
| 20260506020108 | 63 | 148 | 0.0 | 4.0 | 0.00 | 0.00 | 0.00 | 70 | 1010.4 |
| 20260506014610 | 63 | 0 | 0.0 | 4.0 | 0.00 | 0.00 | 0.00 | 70 | 1010.2 |
| 20260506013057 | 63 | 129 | 1.0 | 3.0 | 0.00 | 0.00 | 0.00 | 69 | 1010.0 |
| 20260506011622 | 64 | 159 | 1.0 | 4.0 | 0.00 | 0.00 | 0.00 | 68 | 1009.9 |
| 20260506010056 | 64 | 0 | 1.0 | 5.0 | 0.00 | 0.00 | 0.00 | 67 | 1009.7 |
| 20260506004604 | 65 | 0 | 0.0 | 5.0 | 0.00 | 0.00 | 0.00 | 66 | 1009.6 |
| 20260506003056 | 65 | 182 | 1.0 | 6.0 | 0.00 | 0.00 | 0.00 | 66 | 1009.3 |
| 20260506001601 | 66 | 144 | 1.0 | 4.0 | 0.00 | 0.00 | 0.00 | 65 | 1009.0 |
| 20260506000118 | 67 | 0 | 1.0 | 7.0 | 0.00 | 0.00 | 0.00 | 64 | 1008.9 |
| 20260505234556 | 67 | 180 | 1.0 | 5.0 | 0.00 | 0.00 | 0.00 | 64 | 1008.8 |
| 20260505233059 | 68 | 0 | 1.0 | 7.0 | 0.00 | 0.00 | 0.00 | 63 | 1008.7 |
| 20260505231609 | 69 | 277 | 1.0 | 6.0 | 0.00 | 0.00 | 0.00 | 62 | 1008.3 |
| 20260505230107 | 69 | 156 | 1.0 | 6.0 | 0.00 | 0.00 | 0.00 | 62 | 1008.2 |
| 20260505224558 | 70 | 198 | 1.0 | 5.0 | 0.00 | 0.00 | 0.00 | 61 | 1008.0 |
| 20260505223054 | 70 | 178 | 2.0 | 7.0 | 0.00 | 0.00 | 0.00 | 61 | 1007.8 |
| 20260505221600 | 71 | 0 | 2.0 | 6.0 | 0.00 | 0.00 | 0.00 | 60 | 1008.1 |
| 20260505220057 | 72 | 179 | 2.0 | 5.0 | 0.00 | 0.00 | 0.00 | 58 | 1008.1 |
| 20260505214557 | 73 | 172 | 2.0 | 7.0 | 0.00 | 0.00 | 0.00 | 57 | 1008.2 |
| 20260505213055 | 73 | 0 | 1.0 | 10.0 | 0.00 | 0.00 | 0.00 | 58 | 1007.9 |
| 20260505211555 | 74 | 176 | 1.0 | 5.0 | 0.00 | 0.00 | 0.00 | 56 | 1007.9 |
| 20260505210057 | 74 | 174 | 2.0 | 5.0 | 0.00 | 0.00 | 0.00 | 56 | 1008.0 |
| 20260505204600 | 75 | 225 | 1.0 | 13.0 | 0.00 | 0.00 | 0.00 | 55 | 1007.8 |
| 20260505203102 | 76 | 144 | 1.0 | 8.0 | 0.00 | 0.00 | 0.00 | 56 | 1007.7 |
| 20260505201557 | 76 | 197 | 2.0 | 9.0 | 0.00 | 0.00 | 0.00 | 54 | 1007.8 |
| 20260505200058 | 77 | 185 | 3.0 | 7.0 | 0.00 | 0.00 | 0.00 | 53 | 1007.9 |
| 20260505194616 | 78 | 173 | 1.0 | 5.0 | 0.00 | 0.00 | 0.00 | 52 | 1008.1 |
| 20260505193101 | 78 | 195 | 2.0 | 7.0 | 0.00 | 0.00 | 0.00 | 51 | 1008.0 |
| 20260505191606 | 79 | 204 | 2.0 | 8.0 | 0.00 | 0.00 | 0.00 | 51 | 1008.0 |
| 20260505190055 | 79 | 169 | 2.0 | 6.0 | 0.00 | 0.00 | 0.00 | 52 | 1008.2 |
| 20260505184555 | 79 | 158 | 2.0 | 8.0 | 0.00 | 0.00 | 0.00 | 52 | 1008.2 |
| 20260505183057 | 79 | 196 | 2.0 | 11.0 | 0.00 | 0.00 | 0.00 | 51 | 1008.5 |